This is the latest recevied weather packets stored in our database for station/object KJ5JYX. If no packets are shown the sender has not sent any weather packets the latest 10 day(s).
| Time | Temp. | Humidity | Pressure | Rain* | Wind** | Luminosity | Snow |
|---|---|---|---|---|---|---|---|
| 1778117305 | 16.67° C | 90% | 1015.3 hPa | 0 mm | - | 0 W/m² | - |
| 1778117000 | 16.67° C | 90% | 1015.2 hPa | 0 mm | - | 0 W/m² | - |
| 1778116698 | 16.67° C | 90% | 1015.2 hPa | 0 mm | - | 1 W/m² | - |
| 1778116395 | 16.67° C | 90% | 1015.3 hPa | 0 mm | - | 1 W/m² | - |
| 1778116095 | 16.67° C | 89% | 1015 hPa | 0 mm | - | 1 W/m² | - |
| 1778115790 | 16.67° C | 89% | 1014.7 hPa | 0 mm | - | 3 W/m² | - |
| 1778115487 | 16.67° C | 89% | 1014.9 hPa | 0 mm | - | 4 W/m² | - |
| 1778115184 | 16.67° C | 89% | 1014.8 hPa | 0 mm | - | 4 W/m² | - |
| 1778114880 | 16.67° C | 89% | 1014.6 hPa | 0 mm | - | 6 W/m² | - |
| 1778114578 | 16.67° C | 89% | 1014.5 hPa | 0 mm | - | 9 W/m² | - |
| 1778114274 | 16.67° C | 88% | 1014.8 hPa | 0 mm | - | 11 W/m² | - |
| 1778113969 | 16.67° C | 89% | 1014.6 hPa | 0 mm | - | 11 W/m² | - |
| 1778113665 | 16.67° C | 89% | 1014.7 hPa | 0 mm | - | 13 W/m² | - |
| 1778113362 | 16.67° C | 88% | 1014.3 hPa | 0 mm | - | 16 W/m² | - |
| 1778113059 | 17.22° C | 87% | 1014.1 hPa | 0 mm | - | 18 W/m² | - |
| 1778112756 | 17.22° C | 88% | 1014.3 hPa | 0 mm | - | 22 W/m² | - |
| 1778112452 | 17.22° C | 88% | 1014.2 hPa | 0 mm | - | 26 W/m² | - |
| 1778112148 | 17.22° C | 87% | 1014.5 hPa | 0 mm | - | 31 W/m² | - |
| 1778111845 | 17.22° C | 87% | 1014.4 hPa | 0 mm | - | 33 W/m² | - |
| 1778111540 | 17.22° C | 86% | 1014.4 hPa | 0 mm | - | 38 W/m² | - |
| 1778111238 | 17.22° C | 86% | 1014.5 hPa | 0 mm | - | 49 W/m² | - |
| 1778110935 | 17.22° C | 87% | 1014.3 hPa | 0 mm | - | 53 W/m² | - |
| 1778110633 | 17.22° C | 87% | 1013.9 hPa | 0 mm | - | 71 W/m² | - |
| 1778110329 | 17.22° C | 86% | 1014.3 hPa | 0 mm | - | 80 W/m² | - |
| 1778110025 | 17.22° C | 86% | 1014.5 hPa | 0 mm | - | 76 W/m² | - |
* Rain latest hour (hover to see other rain measurements)
** Current wind speed in m/s (hover to see current wind gust speed)